Location: Peterborough
(44.3091°N, 78.3197°W)
Time: 07:10:45
(UTC-05:00)

A-11 Canister half - Pass Details

Date: 18 December 2023
Orbit: 1512 x 1687 km, 47.2° (Epoch: 25 February)

Event Time Altitude Azimuth Distance (km) Brightness Sun altitude
Exits shadow 04:21:43 26° 194° (SSW) 2,861 10.2 -35.1°
Drops below altitude 10° 04:26:37 10° 169° (S) 3,927 11.2 -34.2°
Sets 04:30:15 0° 160° (SSE) 4,923 11.9 -33.6°
